Location: Gandikunta
(16.3784°N, 80.8378°E)
Time: 23:52:07
(UTC+00:00)

Cosmos 1606 Rocket - Pass Details

Date: 19 May 2025
Orbit: 596 x 626 km, 82.5° (Epoch: 18 June)

Event Time Altitude Azimuth Distance (km) Brightness Sun altitude
Exits shadow 14:22:02 13° 182° (S) 1,808 5.7 -18.5°
Maximum altitude 14:26:00 84° 94° (E) 630 3.4 -19.3°
Drops below altitude 10° 14:30:26 10° 6° (N) 1,995 6.4 -20.2°
Sets 14:32:40 0° 6° (N) 2,903 7.3 -20.7°
